Вернуться в каталог

TITAN 4B DEB

АктивенLEO
NORAD 27469·DEBRIS·🇺🇸 United States

Запущен Aug 17, 2000 с Vandenberg Space Force Base

Loading…

Ближайшие Пролёты (ближайшие 24 часа)

TLE

СвежийSource: Space-Track

Эпоха: Sep 14, 2026, 21:55 UTC

1 27469U 00047C   26257.91355613  .00000175  00000-0  28360-4 0  9990
2 27469  67.9945  79.0211 0066603 271.0847  88.2663 14.91881053313112

Отслеживайте TITAN 4B DEB в реальном времени с AllMySat

Download on the App Store